EW9353 Weather Reports


time (UTC)temp
C
wind
direction
speed
KPH
gust
KPH
rain 1hr
cm
rain 24hr
cm
rain mn
cm
humidity
%
barometer
mb
20181023101508 14 69 20.9 37.0 0.00 0.00 0.00 62 1025.4
20181023100001 13 44 19.3 32.2 0.00 0.00 0.00 63 1025.1
20181023094639 13 49 19.3 30.6 0.00 0.00 0.00 64 1025.2
20181023093125 13 61 17.7 33.8 0.00 0.00 0.00 65 1025.3
20181023091621 13 71 16.1 29.0 0.00 0.00 0.00 66 1025.3
20181023090113 12 59 16.1 32.2 0.00 0.00 0.00 66 1025.4
20181023084710 12 52 19.3 30.6 0.00 0.00 0.00 66 1025.4
20181023083108 12 53 16.1 27.4 0.00 0.00 0.00 67 1025.4
20181023081608 11 60 16.1 29.0 0.00 0.00 0.00 68 1025.4
20181023080058 11 45 14.5 30.6 0.00 0.00 0.00 69 1025.1
20181023074550 11 53 16.1 24.1 0.00 0.00 0.00 70 1024.9
20181023073102 10 52 14.5 25.7 0.00 0.00 0.00 70 1024.8
20181023071534 10 46 14.5 24.1 0.00 0.00 0.00 70 1024.5
20181023070052 10 67 11.3 27.4 0.00 0.00 0.00 70 1024.4
20181023064537 10 84 12.9 24.1 0.00 0.00 0.00 70 1024.1
20181023063030 10 44 16.1 25.7 0.00 0.00 0.00 70 1023.9
20181023061520 10 68 12.9 20.9 0.00 0.00 0.00 69 1023.8
20181023060021 10 51 11.3 25.7 0.00 0.00 0.00 69 1023.7
20181023054516 11 59 17.7 29.0 0.00 0.00 0.00 68 1023.6
20181023053021 11 37 16.1 27.4 0.00 0.00 0.00 68 1023.4
20181023051511 11 32 16.1 29.0 0.00 0.00 0.00 67 1023.3
20181023050003 11 45 17.7 30.6 0.00 0.00 0.00 67 1023.3
20181023044505 11 55 16.1 25.7 0.00 0.00 0.00 67 1023.1
20181023043201 11 61 14.5 22.5 0.00 0.00 0.00 66 1023.1
20181023041724 11 56 14.5 24.1 0.00 0.00 0.00 65 1023.2
20181023040140 11 58 12.9 25.7 0.00 0.00 0.00 65 1023.3
20181023034641 11 67 12.9 24.1 0.00 0.00 0.00 64 1023.4
20181023033202 12 49 11.3 22.5 0.00 0.00 0.00 64 1023.3
20181023031629 12 71 11.3 29.0 0.00 0.00 0.00 63 1023.3
20181023030224 12 53 12.9 24.1 0.00 0.00 0.00 63 1023.1
20181023024617 12 53 16.1 27.4 0.00 0.00 0.00 62 1022.9
20181023023118 12 34 14.5 33.8 0.00 0.00 0.00 61 1022.8
20181023021551 12 57 16.1 27.4 0.00 0.00 0.00 60 1022.7
20181023020044 12 36 17.7 27.4 0.00 0.00 0.00 59 1022.6
20181023014553 12 53 12.9 24.1 0.00 0.00 0.00 59 1022.8
20181023013044 12 64 4.8 19.3 0.00 0.00 0.00 58 1022.9
20181023011556 13 69 12.9 22.5 0.00 0.00 0.00 58 1022.7
20181023010104 13 18 11.3 19.3 0.00 0.00 0.00 58 1022.7
20181023004554 13 49 12.9 22.5 0.00 0.00 0.00 58 1022.5
20181023003038 13 32 14.5 20.9 0.00 0.00 0.00 58 1022.5
20181023001552 13 52 11.3 19.3 0.00 0.00 0.00 57 1022.5
20181023000022 14 45 11.3 20.9 0.00 0.00 0.00 58 1022.7
20181022234532 14 57 6.4 22.5 0.00 0.00 0.00 59 1022.8
20181022233017 15 34 9.7 22.5 0.00 0.00 0.00 58 1022.7
20181022231539 15 74 12.9 20.9 0.00 0.00 0.00 58 1022.6
20181022230008 15 57 14.5 24.1 0.00 0.00 0.00 58 1022.7
20181022224509 15 47 11.3 20.9 0.00 0.00 0.00 59 1022.7
20181022223010 15 57 9.7 19.3 0.00 0.00 0.00 58 1022.6
20181022221509 16 53 11.3 19.3 0.00 0.00 0.00 57 1022.8
20181022220021 16 35 14.5 24.1 0.00 0.00 0.00 55 1022.7
20181022214506 15 32 11.3 17.7 0.00 0.00 0.00 56 1022.8
20181022213012 16 30 8.0 19.3 0.00 0.00 0.00 54 1022.7
20181022211505 16 44 8.0 17.7 0.00 0.00 0.00 52 1022.6
20181022210002 16 63 4.8 16.1 0.00 0.00 0.00 51 1022.6
20181022204502 16 38 8.0 16.1 0.00 0.00 0.00 51 1022.4
20181022203010 16 26 9.7 19.3 0.00 0.00 0.00 51 1022.1
20181022201501 16 43 4.8 9.7 0.00 0.00 0.00 51 1022.1
20181022200123 17 34 6.4 12.9 0.00 0.00 0.00 47 1021.9
20181022194639 18 69 8.0 17.7 0.00 0.00 0.00 42 1021.7
20181022193105 17 71 8.0 12.9 0.00 0.00 0.00 48 1021.6
20181022191703 15 69 4.8 8.0 0.00 0.00 0.00 56 1021.7
20181022190152 13 76 3.2 6.4 0.00 0.00 0.00 64 1021.7
20181022184643 14 76 0.0 3.2 0.00 0.00 0.00 60 1021.8
20181022183116 15 76 0.0 3.2 0.00 0.00 0.00 57 1021.6
20181022181630 16 76 0.0 4.8 0.00 0.00 0.00 52 1021.5
20181022180156 17 76 1.6 4.8 0.00 0.00 0.00 45 1021.4
20181022174817 18 76 3.2 6.4 0.00 0.00 0.00 41 1021.3
20181022173154 20 76 3.2 8.0 0.00 0.00 0.00 36 1021.3
20181022171638 21 71 4.8 11.3 0.00 0.00 0.00 33 1021.2
20181022170449 21 77 6.4 16.1 0.00 0.00 0.00 31 1021.2
20181022164739 22 84 8.0 14.5 0.00 0.00 0.00 29 1021.0
20181022163124 22 71 9.7 19.3 0.00 0.00 0.00 28 1020.8
20181022161642 22 55 8.0 25.7 0.00 0.00 0.00 27 1020.9
20181022160102 23 53 8.0 19.3 0.00 0.00 0.00 28 1020.8
20181022154632 23 54 12.9 20.9 0.00 0.00 0.00 26 1020.7
20181022153116 23 65 11.3 20.9 0.00 0.00 0.00 28 1020.7
20181022151629 23 76 12.9 20.9 0.00 0.00 0.00 33 1020.5
20181022150125 23 80 11.3 27.4 0.00 0.00 0.00 38 1020.3
20181022144600 22 45 11.3 22.5 0.00 0.05 0.00 43 1020.4
20181022143110 22 26 11.3 22.5 0.00 0.05 0.00 48 1020.3
20181022141622 22 70 14.5 29.0 0.00 0.05 0.00 49 1020.4
20181022140103 22 44 12.9 25.7 0.00 0.05 0.00 52 1020.5
20181022134648 22 33 12.9 20.9 0.00 0.05 0.00 55 1020.5
20181022133113 22 58 12.9 22.5 0.00 0.05 0.00 54 1020.6
20181022131605 22 69 16.1 25.7 0.00 0.05 0.00 55 1020.6
20181022130034 22 66 12.9 25.7 0.00 0.05 0.00 58 1020.7
20181022124552 22 34 12.9 22.5 0.00 0.05 0.00 61 1020.7
20181022123028 21 60 16.1 29.0 0.00 0.05 0.00 62 1021.1
20181022121543 21 43 17.7 29.0 0.00 0.05 0.00 63 1021.2
20181022120055 21 53 12.9 24.1 0.00 0.05 0.00 65 1021.5
20181022114525 21 80 14.5 24.1 0.00 0.05 0.00 65 1021.8
20181022113041 20 34 14.5 24.1 0.00 0.05 0.00 67 1022.1
20181022111517 20 27 11.3 22.5 0.00 0.05 0.00 68 1022.2
20181022110009 19 15 9.7 20.9 0.00 0.05 0.00 69 1022.3
20181022104509 18 51 12.9 27.4 0.00 0.05 0.00 70 1022.3
20181022103301 18 78 9.7 22.5 0.00 0.05 0.00 71 1022.3
20181022101627 18 60 9.7 20.9 0.00 0.05 0.00 72 1022.4